K6PKL-2 Weather Reports


Display with metric or nautical units.
time (UTC)temp
F
wind
direction
speed
MPH
gust
MPH
rain 1hr
in
rain 24hr
in
rain mn
in
humidity
%
barometer
mb
20260504200600 65 225 0.0 0.0 0.00 0.00 0.00 71 1020.0
20260504200200 65 135 0.0 2.0 0.00 0.00 0.00 71 1019.9
20260504195800 65 270 0.0 0.0 0.00 0.00 0.00 71 1020.0
20260504195400 65 0 0.0 0.0 0.00 0.00 0.00 71 1019.9
20260504195000 65 0 0.0 0.0 0.00 0.00 0.00 71 1019.9
20260504194559 65 217 0.0 1.0 0.00 0.00 0.00 71 1020.0
20260504194159 65 105 0.0 5.0 0.00 0.00 0.00 71 1020.0
20260504193359 65 270 0.0 0.0 0.00 0.00 0.00 72 1020.0
20260504192959 65 225 0.0 1.0 0.00 0.00 0.00 71 1020.0
20260504192559 65 0 0.0 1.0 0.00 0.00 0.00 71 1020.0
20260504192159 65 94 1.0 1.0 0.00 0.00 0.00 71 1020.1
20260504191759 65 45 0.0 0.0 0.00 0.00 0.00 71 1020.2
20260504191358 64 33 0.0 0.0 0.00 0.00 0.00 71 1020.2
20260504190958 64 4 0.0 0.0 0.00 0.00 0.00 71 1020.2
20260504190558 64 90 0.0 3.0 0.00 0.00 0.00 71 1020.2
20260504190158 64 312 0.0 0.0 0.00 0.00 0.00 72 1020.2
20260504185758 64 270 0.0 0.0 0.00 0.00 0.00 71 1020.3
20260504185358 64 90 0.0 0.0 0.00 0.00 0.00 72 1020.3
20260504184557 63 135 0.0 0.0 0.00 0.00 0.00 72 1020.2
20260504184157 63 90 0.0 0.0 0.00 0.00 0.00 71 1020.3
20260504183757 63 135 0.0 0.0 0.00 0.00 0.00 71 1020.2
20260504183357 63 112 0.0 0.0 0.00 0.00 0.00 71 1020.2
20260504182557 63 85 0.0 0.0 0.00 0.00 0.00 71 1020.3
20260504182157 63 135 0.0 0.0 0.00 0.00 0.00 72 1020.3
20260504181756 63 90 0.0 0.0 0.00 0.00 0.00 72 1020.3
20260504181356 63 135 0.0 0.0 0.00 0.00 0.00 72 1020.2
20260504180556 62 135 0.0 0.0 0.00 0.00 0.00 71 1020.2
20260504180156 62 45 0.0 3.0 0.00 0.00 0.00 72 1020.3
20260504175756 62 90 0.0 0.0 0.00 0.00 0.00 72 1020.2
20260504175356 62 90 0.0 0.0 0.00 0.00 0.00 72 1020.3
20260504174955 62 45 0.0 0.0 0.00 0.00 0.00 72 1020.3
20260504174555 62 0 0.0 0.0 0.00 0.00 0.00 72 1020.4
20260504174155 62 225 0.0 0.0 0.00 0.00 0.00 72 1020.3
20260504173755 62 270 0.0 0.0 0.00 0.00 0.00 72 1020.2
20260504173355 61 270 0.0 0.0 0.00 0.00 0.00 72 1020.1
20260504172955 61 225 0.0 0.0 0.00 0.00 0.00 72 1020.2
20260504172555 61 225 0.0 0.0 0.00 0.00 0.00 72 1020.2
20260504172154 61 45 0.0 0.0 0.00 0.00 0.00 72 1020.2
20260504171754 61 270 0.0 0.0 0.00 0.00 0.00 72 1020.2
20260504171354 61 135 0.0 0.0 0.00 0.00 0.00 73 1020.1
20260504170955 60 112 0.0 0.0 0.00 0.00 0.00 73 1020.0
20260504170554 60 249 0.0 0.0 0.00 0.00 0.00 74 1020.0
20260504170154 60 348 0.0 0.0 0.00 0.00 0.00 74 1020.0
20260504160152 58 180 0.0 0.0 0.00 0.00 0.00 75 1019.7
20260504150950 57 225 0.0 0.0 0.00 0.00 0.00 75 1019.7
20260504150550 57 225 0.0 0.0 0.00 0.00 0.00 75 1019.7
20260504150149 57 225 0.0 0.0 0.00 0.00 0.00 75 1019.8
20260504140548 57 328 0.0 0.0 0.00 0.00 0.00 76 1019.7
20260504140147 57 315 0.0 0.0 0.00 0.00 0.00 76 1019.7
20260504130547 57 0 0.0 0.0 0.00 0.00 0.00 75 1019.4
20260504130146 57 9 0.0 0.0 0.00 0.00 0.00 75 1019.4
20260504120144 57 270 0.0 0.0 0.00 0.00 0.00 75 1018.9
20260504110542 57 180 0.0 4.0 0.00 0.00 0.00 74 1019.1
20260504110142 57 232 3.0 4.0 0.00 0.00 0.00 74 1019.1
20260504100540 58 256 5.0 9.0 0.00 0.00 0.00 73 1018.9
20260504081736 58 353 5.0 5.0 0.00 0.00 0.00 73 1019.3
20260504081336 58 297 4.0 6.0 0.00 0.00 0.00 72 1019.3
20260504080936 58 317 3.0 6.0 0.00 0.00 0.00 73 1019.4
20260504080535 58 33 0.0 7.0 0.00 0.00 0.00 72 1019.3
20260504080135 58 315 4.0 8.0 0.00 0.00 0.00 72 1019.3
20260504070130 59 328 4.0 6.0 0.00 0.00 0.00 69 1018.9
20260504060128 60 301 1.0 4.0 0.00 0.00 0.00 68 1018.7
20260504050526 61 252 0.0 4.0 0.00 0.00 0.00 64 1018.4
20260504050126 62 234 3.0 6.0 0.00 0.00 0.00 65 1018.5
20260504045726 62 310 5.0 5.0 0.00 0.00 0.00 65 1018.4
20260504045326 62 256 3.0 5.0 0.00 0.00 0.00 64 1018.4
20260504044926 62 342 3.0 4.0 0.00 0.00 0.00 64 1018.3
20260504044525 62 256 0.0 6.0 0.00 0.00 0.00 64 1018.2
20260504044125 62 267 2.0 8.0 0.00 0.00 0.00 63 1018.3
20260504043725 62 211 3.0 5.0 0.00 0.00 0.00 63 1018.3
20260504043325 62 315 4.0 4.0 0.00 0.00 0.00 63 1018.2
20260504042925 63 225 1.0 4.0 0.00 0.00 0.00 63 1018.1
20260504042525 63 247 3.0 6.0 0.00 0.00 0.00 62 1018.2
20260504042124 63 195 3.0 6.0 0.00 0.00 0.00 62 1018.2
20260504041724 63 319 6.0 6.0 0.00 0.00 0.00 62 1018.0
20260504041323 63 232 3.0 7.0 0.00 0.00 0.00 62 1017.9
20260504040923 63 265 1.0 6.0 0.00 0.00 0.00 62 1017.9
20260504040523 64 267 5.0 6.0 0.00 0.00 0.00 61 1017.8
20260504040123 64 310 4.0 6.0 0.00 0.00 0.00 61 1017.7
20260504035723 64 273 1.0 6.0 0.00 0.00 0.00 61 1017.6
20260504035323 64 270 3.0 7.0 0.00 0.00 0.00 59 1017.6
20260504034922 65 247 4.0 6.0 0.00 0.00 0.00 59 1017.6
20260504034523 65 267 2.0 4.0 0.00 0.00 0.00 59 1017.5
20260504034122 65 222 2.0 4.0 0.00 0.00 0.00 58 1017.7
20260504033722 65 256 4.0 7.0 0.00 0.00 0.00 58 1017.7
20260504033322 65 252 3.0 8.0 0.00 0.00 0.00 58 1017.5
20260504032922 65 225 0.0 6.0 0.00 0.00 0.00 58 1017.5
20260504032522 66 346 1.0 6.0 0.00 0.00 0.00 58 1017.5
20260504032122 66 205 6.0 10.0 0.00 0.00 0.00 57 1017.6
20260504031722 66 258 1.0 9.0 0.00 0.00 0.00 57 1017.4
20260504031322 67 281 1.0 6.0 0.00 0.00 0.00 57 1017.4
20260504030922 67 292 3.0 8.0 0.00 0.00 0.00 57 1017.4
20260504030521 67 322 3.0 7.0 0.00 0.00 0.00 56 1017.3
20260504030121 67 218 4.0 5.0 0.00 0.00 0.00 56 1017.2
20260504025721 68 228 4.0 9.0 0.00 0.00 0.00 55 1017.2
20260504025321 68 225 3.0 8.0 0.00 0.00 0.00 55 1017.2
20260504024520 69 229 3.0 7.0 0.00 0.00 0.00 54 1016.8
20260504024120 69 317 3.0 7.0 0.00 0.00 0.00 54 1016.9
20260504023320 70 276 4.0 8.0 0.00 0.00 0.00 53 1016.6
20260504022920 71 281 1.0 7.0 0.00 0.00 0.00 53 1016.6
20260504022522 71 317 8.0 9.0 0.00 0.00 0.00 51 1016.6
20260504022119 72 323 4.0 8.0 0.00 0.00 0.00 51 1016.6
20260504021319 74 319 5.0 9.0 0.00 0.00 0.00 50 1016.4
20260504020919 74 265 3.0 6.0 0.00 0.00 0.00 50 1016.4
20260504020519 75 247 3.0 8.0 0.00 0.00 0.00 49 1016.5
20260504020119 75 272 6.0 7.0 0.00 0.00 0.00 50 1016.4
20260504015718 75 308 5.0 9.0 0.00 0.00 0.00 50 1016.5
20260504015318 75 256 5.0 12.0 0.00 0.00 0.00 50 1016.3
20260504014918 75 240 3.0 8.0 0.00 0.00 0.00 50 1016.3
20260504014118 74 243 6.0 7.0 0.00 0.00 0.00 51 1016.4
20260504013718 74 238 4.0 9.0 0.00 0.00 0.00 51 1016.4
20260504013318 74 247 6.0 9.0 0.00 0.00 0.00 51 1016.4
20260504012917 74 276 6.0 9.0 0.00 0.00 0.00 52 1016.4
20260504012517 73 225 4.0 8.0 0.00 0.00 0.00 52 1016.5
20260504012117 73 315 4.0 12.0 0.00 0.00 0.00 52 1016.2
20260504011717 73 285 3.0 16.0 0.00 0.00 0.00 53 1016.2
20260504011317 73 220 8.0 12.0 0.00 0.00 0.00 53 1016.5
20260504010917 73 228 3.0 15.0 0.00 0.00 0.00 53 1016.3
20260504010116 73 297 5.0 10.0 0.00 0.00 0.00 54 1016.4
20260504005717 73 230 5.0 7.0 0.00 0.00 0.00 53 1016.4
20260504005316 73 312 4.0 10.0 0.00 0.00 0.00 53 1016.2
20260504004916 73 216 8.0 8.0 0.00 0.00 0.00 54 1016.2
20260504004516 73 235 3.0 8.0 0.00 0.00 0.00 54 1016.2
20260504004116 73 237 4.0 11.0 0.00 0.00 0.00 54 1016.2
20260504003717 73 277 0.0 8.0 0.00 0.00 0.00 54 1016.1
20260504003315 73 233 6.0 9.0 0.00 0.00 0.00 54 1016.1
20260504002915 73 321 6.0 10.0 0.00 0.00 0.00 54 1016.0
20260504002515 73 285 3.0 9.0 0.00 0.00 0.00 54 1016.0
20260504002115 73 337 5.0 9.0 0.00 0.00 0.00 54 1016.1
20260504001715 73 307 5.0 9.0 0.00 0.00 0.00 54 1016.0
20260504001315 73 258 3.0 8.0 0.00 0.00 0.00 54 1016.0
20260504000515 73 228 3.0 7.0 0.00 0.00 0.00 54 1016.0
20260504000114 73 213 6.0 6.0 0.00 0.00 0.00 54 1016.0
20260503235714 73 240 3.0 9.0 0.00 0.00 0.00 54 1016.0
20260503235314 73 260 2.0 7.0 0.00 0.00 0.00 53 1015.9
20260503234914 73 281 4.0 8.0 0.00 0.00 0.00 54 1016.0
20260503234514 73 324 3.0 9.0 0.00 0.00 0.00 54 1015.9
20260503234114 73 9 3.0 9.0 0.00 0.00 0.00 54 1015.8
20260503233313 73 309 5.0 7.0 0.00 0.00 0.00 54 1016.0
20260503232913 73 238 0.0 12.0 0.00 0.00 0.00 54 1015.9
20260503232513 73 254 5.0 7.0 0.00 0.00 0.00 54 1015.9
20260503232113 73 5 5.0 8.0 0.00 0.00 0.00 54 1015.8
20260503231713 73 232 6.0 8.0 0.00 0.00 0.00 54 1015.8
20260503230513 73 317 3.0 7.0 0.00 0.00 0.00 54 1015.9
20260503230112 73 306 2.0 8.0 0.00 0.00 0.00 54 1016.0
20260503225712 73 247 0.0 7.0 0.00 0.00 0.00 55 1016.0
20260503225312 73 211 4.0 6.0 0.00 0.00 0.00 55 1016.1
20260503224912 73 213 5.0 8.0 0.00 0.00 0.00 54 1016.1
20260503224512 73 355 4.0 6.0 0.00 0.00 0.00 55 1016.2
20260503224111 73 29 3.0 7.0 0.00 0.00 0.00 55 1016.2
20260503223711 73 337 2.0 6.0 0.00 0.00 0.00 55 1016.2
20260503223311 72 339 0.0 9.0 0.00 0.00 0.00 55 1016.2
20260503222911 72 47 3.0 8.0 0.00 0.00 0.00 55 1016.1
20260503222511 72 337 1.0 5.0 0.00 0.00 0.00 56 1016.2
20260503222112 72 315 5.0 6.0 0.00 0.00 0.00 55 1016.3
20260503221711 72 285 3.0 8.0 0.00 0.00 0.00 56 1016.3
20260503220510 72 239 0.0 10.0 0.00 0.00 0.00 58 1016.3
20260503215710 72 270 0.0 4.0 0.00 0.00 0.00 57 1016.3
20260503215310 72 297 4.0 11.0 0.00 0.00 0.00 58 1016.4
20260503214910 72 330 2.0 4.0 0.00 0.00 0.00 58 1016.5
20260503214509 71 47 0.0 6.0 0.00 0.00 0.00 58 1016.4
20260503214109 71 236 0.0 3.0 0.00 0.00 0.00 58 1016.6
20260503213709 71 328 5.0 10.0 0.00 0.00 0.00 58 1016.6
20260503213309 71 303 0.0 5.0 0.00 0.00 0.00 58 1016.6
20260503212909 71 54 0.0 6.0 0.00 0.00 0.00 58 1016.7
20260503212109 70 324 3.0 7.0 0.00 0.00 0.00 58 1016.8
20260503211708 70 355 7.0 7.0 0.00 0.00 0.00 58 1016.8
20260503211308 70 348 0.0 4.0 0.00 0.00 0.00 59 1016.8
20260503210108 70 275 0.0 8.0 0.00 0.00 0.00 59 1016.7
20260503205708 70 344 2.0 8.0 0.00 0.00 0.00 59 1016.7
20260503205308 70 33 8.0 8.0 0.00 0.00 0.00 59 1016.5
20260503204907 70 335 7.0 11.0 0.00 0.00 0.00 59 1016.7
20260503204107 70 288 0.0 8.0 0.00 0.00 0.00 59 1016.7
20260503203707 70 346 0.0 7.0 0.00 0.00 0.00 59 1016.6
20260503203307 70 216 0.0 5.0 0.00 0.00 0.00 59 1016.6
20260503201706 70 238 3.0 4.0 0.00 0.00 0.00 60 1016.6
20260503201306 70 315 0.0 3.0 0.00 0.00 0.00 61 1016.7
20260503200906 70 209 6.0 10.0 0.00 0.00 0.00 61 1016.5